Погода Красная Поляна

Погода Красная Поляна : погода сейчас, прогноз погоды и архив. Всё, что Вы хотите узнать о погоде Красная Поляна!

Поиск расширенной информации на нашем сайте:

Другие новости

Новости СМИ2

Главная страница сайта

Новости сайта

03.07.2017

Напоминаем, что на нашем специализированном сайте Метеоцентр.Азия вы можете получить высокодетализированные автоматические прогнозы погоды по пунктам России, СНГ и мира в авиационном формате (включающие направление и скорость ветра, видимость, явления погоды, количество и форму облачности, нижнюю и верхнюю границу облачности).


Погода Красная Поляна - сегодня

Время (UTC), дата Ветер
(°,м/с) 
Видим.   Явления Облачность Т
(°С)
Тd
(°С)
f(%) Тe
(°С)
Pmin
(гПа)
dP
(гПа)
Po
(мм)
O2
(г/м3)
Тmin Tmax R s Состояние
почвы
18 13.06.18 360 (С) 20000 м    3/0 средняя 
[Ac lent]
+21 +14.6 67 +31  1005.5  1.6  707  261           
21 13.06.18 030 (СВ) 20000 м    ясно 
+19 +14.1 73 +30  1006.9  0.9  707  264           
00 14.06.18 360 (С) 20000 м    ясно 
+17.4 +13.3 77 +25  1007.3  707  265           
06 14.06.18 230 (ЮЗ) 15000 м    ясно 
+24.3 +13.2 50 +31  1005.2  -0.7  707  259           
09 14.06.18 230 (ЮЗ) 20000 м    ясно 
+29.1 +14.1 40 +38  1002.7  -1.4  706  254           
12 14.06.18 230 (ЮЗ) 20000 м    1/1 1500 м 
[Cu hum]
+30.2 +15.1 40 +41  1001.9  -0.5  706  253           
15 14.06.18 300 (СЗ) 19000 м    1/0 верхняя 
[Ci sp]
+28.6 +14.1 41 +37  1002  -0.3  705  254    +31.2       
18 14.06.18 360 (С) 20000 м    ясно 
+23 +15.8 64 +35  1004.8  1.6  707  259           
21 14.06.18 010 (С) 20000 м    3/0 верхняя 
[Ci sp]
+20.1 +15.5 75 +31  1006.5  707  262           
00 15.06.18 020 (С) 20000 м    4/0 верхняя 
[Cs]
+19.5 +13.7 69 +29  1005.9  -0.8  707  263           
06 15.06.18 тихо ()   20000 м    6/0 средняя, верхняя 
[Ac cast|Ci sp]
+24.9 +15 54 +35  1004.5  707  258           
21 15.06.18 360 (С) 20000 м  {гроза, ливн. осадки}  9/0 средняя 
[Ac cuf]
+18.6 +16.8 89 +34  1009.4  0.1  709  264           
06 16.06.18 120 (ЮВ) 20000 м    10/0 средняя, верхняя 
[Ac As|Cs]
+19.7 +16.4 81 +34  1009.1  0.1  709  263           
09 16.06.18 210 (ЮЗ) 20000 м    10/4 600 м средняя, верхняя 
[Cu med, cong|Ac As|Cs]
+24.1 +16.9 64 +38  1007.4  -0.6  709  259           
00 17.06.18 040 (СВ) 20000 м    ясно 
+14.8 +14.8 100 +25  1009.9  -0.4  709  268           
06 17.06.18 тихо ()   20000 м    10/8 1500 м верхняя 
[Cu Sc|Ci fib]
+19 +14.9 77 +29  1008.2  0.3  708  264           
09 17.06.18 220 (ЮЗ) 20000 м    8/8 1500 м верхняя 
[Cu Sc|Ci fib]
+25.2 +15.8 56 +37  1005.2  -1.5  707  257           
21 17.06.18 010 (С) 20000 м    ясно 
+15.8 +14.8 94 +27  1008.1  -0.5  708  266           
00 18.06.18 020 (С) 20000 м    ясно 
+15.1 +14 93 +25  1007.6  -0.6  707  267           
06 18.06.18 тихо ()   20000 м    8/0 средняя, верхняя 
[Ac As|Ci]
+19.1 +15.2 78 +30  1005.8  -0.4  707  263           
09 18.06.18 160 (Ю) 20000 м    9/4 1000 м средняя 
[Cu med, cong|Ac As]
+24.3 +15.5 58 +36  1004.7  707  258           
18 18.06.18 010 (С) 20000 м    6/0 средняя 
[Ac As]
+17.8 +15.1 84 +29  1007.6  0.3  708  264           
21 18.06.18 тихо ()   20000 м    8/0 средняя 
[Ac As]
+15.3 +13.8 91 +23  1009.9  1.6  709  268           
00 19.06.18 010 (С) 20000 м    10/0 средняя 
[Ac und]
+14.7 +14.1 96 +25  1010  709  268           
06 19.06.18 160 (Ю) 20000 м    6/3 1500 м средняя, верхняя 
[Cu hum|Ac lent|Ci fib]
+21 +14.2 65 +30  1010  0.6  710  263           
Время (UTC), дата Ветер
(°,м/с) 
Видим.   Явления Облачность Т
(°С)
Тd
(°С)
f(%) Тe
(°С)
Pmin
(гПа)
dP
(гПа)
Po
(мм)
O2
(г/м3)
Тmin Tmax R s Состояние
почвы

Для получения пояснительной информации подведите курсор к названию столбца.

ПОГОДА Красная Поляна - архив

Всё, что Вы хотите узнать о погоде Красная Поляна - удобно и подробно!

Выберите нужную дату (начиная с 1 января 2015* года) и нажмите кнопку "Найти".
Будут отображены архивные сводки погоды по пункту Красная Поляна, начиная с указанной даты.


Отображать данные в формате CSV (для использования в таблицах Excel)


Внимание! Наш архив погоды предназначен исключительно для личного некоммерческого использования в познавательных целях. Если Вам необходимы официальные справки о состоянии погоды (для производственных, юридических, коммерческих и т.п. целей), обращайтесь в органы Росгидромета.

*Примечание: данная дата относится к архиву по метеостанциям СССР (Россия, СНГ, Балтия).
Архив по метеостанциям Зарубежной Европы и Азии (кроме Китая) хранится 10 дней, по другим регионам земного шара (Китай, Африка, Америка, Австралия, Океания) - 1 день.

Красная Поляна - район местоположения метеостанции


Название, широта, долгота, высота метеостанции:
Красная Поляна 43.7°ш. 40.2°д. 568 м над ур. моря [Российская Федерация]

Дополнительная информация

В oтличие oт бoльшинства пoгoдных сайтoв мы публикуем пoдрoбную метеoинфoрмацию в детальнoм прoфессиoнальнoм фoрмате.

Характеристики температуры и влажнoсти вoздуха измеряются на высoте 2 м в тени вдали oт зданий и деревьев.
Скoрoсть ветра измеряется на высoте 10 м (на урoвне рoста челoвека скoрoсть ветра ниже в 1.5-2 раза). Если метеoстанция нахoдится в гoрoде или в лесу, тo скoрoсть ветра занижена на 2-4 м/с пo сравнению с oткрытым местoм. Скoрoсть ветра над акватoриями крупных рек и oзёр, а также на вершинах хoлмoв на 2-5 м/с выше, чем в oбычных услoвиях.
Атмoсфернoе давление в разных тoчках местнoсти мoжет значительнo oтличаться oт давления на метеoстанции, в зависимoсти oт услoвий рельефа (при пoдъёме на 10 м давление пoнижается примернo на 1 мм рт.ст.).